When you browse on this site, cookies collect data to enhance your experience and personalize the content and advertising you see.
Visit our Privacy Policy to learn more. By continuing to use the site, you agree to this use of cookies and data.

Stündliche Wetter Krivka

Heute, 14 Juli, Dienstag

Zeit Temperatur Niederschläge Wind Luftdruck Luftfeuchtigkeit
00:00 +10°C° 0 mm 2 m/S 745 mmHg 96%
01:00 +10°C° 0 mm 2 m/S 745 mmHg 96%
02:00 +10°C° 0 mm 2 m/S 745 mmHg 97%
03:00 +10°C° 0 mm 2 m/S 745 mmHg 96%
04:00 +10°C° 0 mm 2 m/S 745 mmHg 95%
05:00 +10°C° 0 mm 2 m/S 745 mmHg 94%
06:00 +12°C° 0 mm 3 m/S 745 mmHg 87%
07:00 +13°C° 0 mm 3 m/S 745 mmHg 80%
08:00 +16°C° 0 mm 3 m/S 745 mmHg 73%
09:00 +17°C° 0 mm 3 m/S 745 mmHg 65%
10:00 +19°C° 0 mm 4 m/S 745 mmHg 58%
11:00 +20°C° 0 mm 4 m/S 745 mmHg 51%
12:00 +21°C° 0 mm 4 m/S 745 mmHg 50%
13:00 +21°C° 0 mm 4 m/S 744 mmHg 49%
14:00 +21°C° 0 mm 4 m/S 744 mmHg 48%
15:00 +21°C° 0 mm 4 m/S 744 mmHg 50%
16:00 +21°C° 0 mm 4 m/S 744 mmHg 53%
17:00 +20°C° 0 mm 4 m/S 743 mmHg 56%
18:00 +19°C° 0 mm 4 m/S 743 mmHg 59%
19:00 +18°C° 0 mm 4 m/S 743 mmHg 62%
20:00 +17°C° 0 mm 4 m/S 742 mmHg 65%
21:00 +15°C° 0 mm 4 m/S 742 mmHg 64%
22:00 +15°C° 0 mm 4 m/S 742 mmHg 63%
23:00 +14°C° 0 mm 4 m/S 742 mmHg 62%

Morgen, 15 Juli, Mittwoch

Zeit Temperatur Niederschläge Wind Luftdruck Luftfeuchtigkeit
00:00 +14°C° 0 mm 4 m/S 741 mmHg 65%
01:00 +14°C° 0 mm 4 m/S 741 mmHg 68%
02:00 +13°C° 0 mm 4 m/S 741 mmHg 71%
03:00 +13°C° 0.1 mm 4 m/S 741 mmHg 73%
04:00 +12°C° 0.1 mm 4 m/S 741 mmHg 74%
05:00 +12°C° 0.1 mm 4 m/S 740 mmHg 76%
06:00 +12°C° 0.1 mm 5 m/S 740 mmHg 74%
07:00 +13°C° 0.1 mm 5 m/S 740 mmHg 72%
08:00 +13°C° 0.1 mm 6 m/S 740 mmHg 71%
09:00 +13°C° 0.6 mm 5 m/S 740 mmHg 78%
10:00 +12°C° 0.6 mm 4 m/S 740 mmHg 84%
11:00 +12°C° 0.6 mm 4 m/S 740 mmHg 91%
12:00 +11°C° 1 mm 4 m/S 741 mmHg 92%
13:00 +11°C° 1 mm 4 m/S 741 mmHg 94%
14:00 +11°C° 1 mm 4 m/S 741 mmHg 95%
15:00 +11°C° 0.3 mm 3 m/S 741 mmHg 95%
16:00 +11°C° 0.3 mm 3 m/S 742 mmHg 94%
17:00 +11°C° 0.3 mm 3 m/S 742 mmHg 94%
18:00 +12°C° 0.1 mm 2 m/S 742 mmHg 94%
19:00 +12°C° 0.1 mm 2 m/S 742 mmHg 94%
20:00 +12°C° 0.1 mm 2 m/S 742 mmHg 95%
21:00 +12°C° 0 mm 2 m/S 742 mmHg 95%
22:00 +10°C° 0 mm 2 m/S 742 mmHg 95%
23:00 +10°C° 0 mm 2 m/S 742 mmHg 96%

übermorgen, 16 Juli, Donnerstag

Zeit Temperatur Niederschläge Wind Luftdruck Luftfeuchtigkeit
00:00 +10°C° 0 mm 2 m/S 742 mmHg 95%
01:00 +10°C° 0 mm 2 m/S 742 mmHg 95%
02:00 +10°C° 0 mm 2 m/S 742 mmHg 94%
03:00 +10°C° 0 mm 3 m/S 742 mmHg 94%
04:00 +10°C° 0 mm 3 m/S 742 mmHg 93%
05:00 +11°C° 0 mm 3 m/S 742 mmHg 92%
06:00 +12°C° 0 mm 3 m/S 742 mmHg 85%
07:00 +14°C° 0 mm 3 m/S 742 mmHg 77%
08:00 +17°C° 0 mm 4 m/S 742 mmHg 69%
09:00 +18°C° 0 mm 4 m/S 742 mmHg 64%
10:00 +20°C° 0 mm 4 m/S 742 mmHg 59%
11:00 +21°C° 0 mm 4 m/S 742 mmHg 53%
12:00 +22°C° 0 mm 4 m/S 742 mmHg 52%
13:00 +22°C° 0 mm 4 m/S 742 mmHg 50%
14:00 +23°C° 0 mm 4 m/S 743 mmHg 49%
15:00 +24°C° 0 mm 3 m/S 742 mmHg 52%
16:00 +22°C° 0 mm 3 m/S 742 mmHg 54%
17:00 +22°C° 0 mm 3 m/S 742 mmHg 57%
18:00 +20°C° 0 mm 2 m/S 742 mmHg 65%
19:00 +18°C° 0 mm 2 m/S 742 mmHg 73%
20:00 +18°C° 0 mm 1 m/S 742 mmHg 81%
21:00 +16°C° 0 mm 1 m/S 743 mmHg 84%
22:00 +15°C° 0 mm 1 m/S 743 mmHg 87%
23:00 +14°C° 0 mm 1 m/S 743 mmHg 90%

17 Juli, Freitag

Zeit Temperatur Niederschläge Wind Luftdruck Luftfeuchtigkeit
00:00 +13°C° 0 mm 1 m/S 743 mmHg 91%
01:00 +13°C° 0 mm 1 m/S 743 mmHg 93%
02:00 +12°C° 0 mm 1 m/S 743 mmHg 95%
03:00 +13°C° 0 mm 1 m/S 743 mmHg 94%
04:00 +13°C° 0 mm 1 m/S 743 mmHg 93%
05:00 +13°C° 0 mm 1 m/S 744 mmHg 93%
06:00 +15°C° 0 mm 1 m/S 744 mmHg 82%
07:00 +18°C° 0 mm 1 m/S 744 mmHg 72%
08:00 +20°C° 0 mm 1 m/S 744 mmHg 62%
09:00 +20°C° 0 mm 2 m/S 744 mmHg 57%
10:00 +21°C° 0 mm 2 m/S 744 mmHg 52%
11:00 +23°C° 0 mm 2 m/S 745 mmHg 47%
12:00 +24°C° 0 mm 2 m/S 745 mmHg 46%
13:00 +24°C° 0 mm 2 m/S 745 mmHg 45%
14:00 +25°C° 0 mm 2 m/S 745 mmHg 43%
15:00 +24°C° 0 mm 2 m/S 745 mmHg 45%
16:00 +24°C° 0 mm 2 m/S 745 mmHg 47%
17:00 +24°C° 0 mm 2 m/S 745 mmHg 49%
18:00 +21°C° 0 mm 2 m/S 745 mmHg 57%
19:00 +19°C° 0 mm 1 m/S 745 mmHg 64%
20:00 +16°C° 0 mm 1 m/S 745 mmHg 72%
21:00 +15°C° 0 mm 1 m/S 746 mmHg 72%
22:00 +14°C° 0 mm 1 m/S 746 mmHg 71%
23:00 +12°C° 0 mm 0 m/S 746 mmHg 71%

18 Juli, Samstag

Zeit Temperatur Niederschläge Wind Luftdruck Luftfeuchtigkeit
00:00 +12°C° 0 mm 0 m/S 746 mmHg 71%
01:00 +12°C° 0 mm 0 m/S 747 mmHg 72%
02:00 +11°C° 0 mm 0 m/S 747 mmHg 72%
03:00 +11°C° 0 mm 0 m/S 747 mmHg 73%
04:00 +12°C° 0 mm 0 m/S 747 mmHg 75%
05:00 +13°C° 0 mm 1 m/S 747 mmHg 76%
06:00 +15°C° 0 mm 1 m/S 748 mmHg 70%
07:00 +18°C° 0 mm 1 m/S 748 mmHg 64%
08:00 +21°C° 0 mm 1 m/S 748 mmHg 59%
09:00 +22°C° 0 mm 1 m/S 748 mmHg 53%
10:00 +24°C° 0 mm 1 m/S 749 mmHg 48%
11:00 +25°C° 0 mm 1 m/S 749 mmHg 43%
12:00 +26°C° 0 mm 1 m/S 749 mmHg 41%
13:00 +26°C° 0 mm 1 m/S 749 mmHg 39%
14:00 +26°C° 0 mm 1 m/S 749 mmHg 36%
15:00 +26°C° 0 mm 1 m/S 749 mmHg 40%
16:00 +26°C° 0 mm 1 m/S 749 mmHg 43%
17:00 +26°C° 0 mm 1 m/S 749 mmHg 46%
18:00 +23°C° 0 mm 1 m/S 749 mmHg 55%
19:00 +21°C° 0 mm 1 m/S 749 mmHg 64%
20:00 +19°C° 0 mm 1 m/S 749 mmHg 72%
21:00 +18°C° 0 mm 1 m/S 749 mmHg 75%
22:00 +16°C° 0 mm 1 m/S 749 mmHg 77%
23:00 +15°C° 0 mm 1 m/S 749 mmHg 79%

19 Juli, Sonntag

Zeit Temperatur Niederschläge Wind Luftdruck Luftfeuchtigkeit
00:00 +14°C° 0 mm 1 m/S 749 mmHg 81%
01:00 +14°C° 0 mm 1 m/S 749 mmHg 82%
02:00 +13°C° 0 mm 1 m/S 749 mmHg 83%
03:00 +14°C° 0 mm 1 m/S 749 mmHg 83%
04:00 +13°C° 0 mm 0 m/S 749 mmHg 83%
05:00 +13°C° 0 mm 0 m/S 750 mmHg 82%
06:00 +15°C° 0 mm 0 m/S 749 mmHg 75%
07:00 +18°C° 0 mm 0 m/S 749 mmHg 67%
08:00 +20°C° 0 mm 0 m/S 749 mmHg 60%
09:00 +23°C° 0 mm 1 m/S 749 mmHg 54%
10:00 +25°C° 0 mm 1 m/S 749 mmHg 48%
11:00 +26°C° 0 mm 1 m/S 749 mmHg 42%
12:00 +26°C° 0 mm 1 m/S 749 mmHg 39%
13:00 +27°C° 0 mm 1 m/S 749 mmHg 37%
14:00 +27°C° 0 mm 1 m/S 748 mmHg 35%
15:00 +27°C° 0 mm 1 m/S 748 mmHg 40%
16:00 +26°C° 0 mm 1 m/S 748 mmHg 45%
17:00 +26°C° 0 mm 1 m/S 747 mmHg 49%
18:00 +24°C° 0 mm 1 m/S 747 mmHg 56%
19:00 +21°C° 0 mm 1 m/S 747 mmHg 64%
20:00 +19°C° 0 mm 1 m/S 747 mmHg 71%
21:00 +18°C° 0 mm 1 m/S 747 mmHg 72%
22:00 +16°C° 0 mm 1 m/S 747 mmHg 73%
23:00 +15°C° 0 mm 1 m/S 747 mmHg 74%
Mehr zeigen